FIN1TH EFHK-LKPR

Flight info

Callsign FIN1TH
Flight time 1h 51m
Altitude 36000
Route H090/04R VALOX Y117 ROSAX DCT PIMEX P739 DEREX DCT ANFEV DCT PENOR DCT LATAG P861 RASAN DCT ASTEL DCT GOLOP
Aircraft A321/M-SDE1E2E3FGHIJ1M1RWXYZ/LB1

Departure

Time 2026-04-24 19:19
Airport Helsinki Vantaa Airport (EFHK)

Arrival

Time 2026-04-24 21:11
Airport Václav Havel Airport Prague (LKPR)
Time Latitude Longitude Altitude Speed Heading
2026-04-24 18:54 60.31978 24.96900 167 ft 0 kts 217°
2026-04-24 19:10 60.31983 24.96906 167 ft 2 kts 219°
2026-04-24 19:10 60.31997 24.96933 167 ft 3 kts 234°
2026-04-24 19:11 60.32006 24.96965 166 ft 3 kts 263°
2026-04-24 19:11 60.32005 24.96999 166 ft 3 kts 305°
2026-04-24 19:11 60.31996 24.97018 166 ft 1 kts 332°
2026-04-24 19:11 60.31995 24.97020 166 ft 0 kts 333°
2026-04-24 19:14 60.31995 24.97019 166 ft 0 kts 333°
2026-04-24 19:14 60.32006 24.97007 166 ft 5 kts 333°
2026-04-24 19:14 60.32060 24.96949 166 ft 10 kts 330°
2026-04-24 19:14 60.32128 24.96868 166 ft 12 kts 330°
2026-04-24 19:15 60.32183 24.96748 166 ft 12 kts 263°
2026-04-24 19:15 60.32134 24.96614 167 ft 13 kts 227°
2026-04-24 19:15 60.32124 24.96454 168 ft 12 kts 289°
2026-04-24 19:15 60.32089 24.96317 168 ft 12 kts 229°
2026-04-24 19:16 60.31919 24.95939 170 ft 22 kts 226°
2026-04-24 19:16 60.31815 24.95706 170 ft 23 kts 230°
2026-04-24 19:16 60.31710 24.95464 171 ft 23 kts 229°
2026-04-24 19:17 60.31597 24.95221 170 ft 25 kts 226°
2026-04-24 19:17 60.31475 24.94958 168 ft 27 kts 226°
2026-04-24 19:17 60.31346 24.94677 162 ft 28 kts 228°
2026-04-24 19:17 60.31209 24.94375 159 ft 30 kts 227°
2026-04-24 19:18 60.31068 24.94061 158 ft 29 kts 228°
2026-04-24 19:18 60.31063 24.93771 159 ft 20 kts 316°
2026-04-24 19:18 60.31156 24.93700 158 ft 11 kts 35°
2026-04-24 19:18 60.31191 24.93773 159 ft 7 kts 46°
2026-04-24 19:19 60.31251 24.93901 159 ft 33 kts 46°
2026-04-24 19:19 60.31611 24.94678 166 ft 113 kts 49°
2026-04-24 19:19 60.32286 24.96155 203 ft 168 kts 45°
2026-04-24 19:19 60.33054 24.97828 1046 ft 159 kts 44°
2026-04-24 19:20 60.33726 24.99632 1623 ft 176 kts 64°
2026-04-24 19:20 60.33808 25.02295 1873 ft 206 kts 95°
2026-04-24 19:20 60.33500 25.05309 2130 ft 232 kts 100°
2026-04-24 19:20 60.32943 25.08546 2450 ft 260 kts 121°
2026-04-24 19:21 60.31603 25.11037 3148 ft 273 kts 154°
2026-04-24 19:21 60.29751 25.11747 3978 ft 276 kts 189°
2026-04-24 19:21 60.27999 25.10316 4817 ft 273 kts 222°
2026-04-24 19:21 60.26556 25.07792 5674 ft 277 kts 226°
2026-04-24 19:22 60.25599 25.06060 6244 ft 281 kts 226°
2026-04-24 19:22 60.23629 25.02475 7347 ft 287 kts 227°
2026-04-24 19:22 60.22138 24.99775 8223 ft 290 kts 227°
2026-04-24 19:22 60.20625 24.97053 9108 ft 293 kts 227°
2026-04-24 19:23 60.19094 24.94315 9940 ft 297 kts 228°
2026-04-24 19:23 60.17511 24.91474 10243 ft 320 kts 227°
2026-04-24 19:23 60.15795 24.88386 10543 ft 340 kts 227°
2026-04-24 19:23 60.14003 24.85189 11184 ft 347 kts 227°
2026-04-24 19:24 60.12183 24.81967 11944 ft 351 kts 227°
2026-04-24 19:24 60.10340 24.78716 12693 ft 354 kts 227°
2026-04-24 19:24 60.08478 24.75433 13448 ft 358 kts 227°
2026-04-24 19:24 60.06601 24.72128 14119 ft 361 kts 227°
2026-04-24 19:25 60.04728 24.68825 14810 ft 364 kts 227°
2026-04-24 19:25 60.02810 24.65448 15507 ft 366 kts 228°
2026-04-24 19:25 60.00887 24.62061 16214 ft 369 kts 228°
2026-04-24 19:25 59.98946 24.58651 16905 ft 372 kts 228°
2026-04-24 19:26 59.97016 24.55263 17580 ft 375 kts 228°
2026-04-24 19:26 59.95038 24.51799 18231 ft 378 kts 228°
2026-04-24 19:26 59.93050 24.48326 18820 ft 381 kts 228°
2026-04-24 19:26 59.91043 24.44826 19420 ft 384 kts 227°
2026-04-24 19:27 59.89023 24.41306 19998 ft 387 kts 227°
2026-04-24 19:27 59.87013 24.37807 20587 ft 390 kts 227°
2026-04-24 19:27 59.84963 24.34242 21177 ft 393 kts 227°
2026-04-24 19:27 59.82898 24.30656 21770 ft 395 kts 227°
2026-04-24 19:28 59.80817 24.27051 22352 ft 398 kts 227°
2026-04-24 19:28 59.78714 24.23421 22917 ft 401 kts 227°
2026-04-24 19:28 59.76601 24.19782 23457 ft 404 kts 226°
2026-04-24 19:28 59.74466 24.16108 23885 ft 406 kts 226°
2026-04-24 19:29 59.69914 24.09243 24782 ft 415 kts 220°
2026-04-24 19:29 59.67587 24.05953 25213 ft 417 kts 220°
2026-04-24 19:29 59.65214 24.02610 25650 ft 419 kts 220°
2026-04-24 19:30 59.62829 23.99260 26091 ft 421 kts 220°
2026-04-24 19:30 59.60440 23.95903 26529 ft 423 kts 220°
2026-04-24 19:30 59.58035 23.92523 26941 ft 425 kts 219°
2026-04-24 19:30 59.55622 23.89123 27359 ft 427 kts 219°
2026-04-24 19:31 59.53197 23.85718 27780 ft 429 kts 219°
2026-04-24 19:31 59.50751 23.82294 28189 ft 431 kts 219°
2026-04-24 19:31 59.48324 23.78811 28583 ft 432 kts 223°
2026-04-24 19:31 59.46168 23.74814 28969 ft 430 kts 230°
2026-04-24 19:32 59.44138 23.70454 29347 ft 433 kts 230°
2026-04-24 19:32 59.42094 23.66068 29733 ft 435 kts 230°
2026-04-24 19:32 59.40037 23.61664 30061 ft 437 kts 230°
2026-04-24 19:32 59.37972 23.57253 30377 ft 440 kts 230°
2026-04-24 19:33 59.35915 23.52873 30702 ft 442 kts 230°
2026-04-24 19:33 59.33817 23.48421 31008 ft 444 kts 230°
2026-04-24 19:33 59.31715 23.43973 31415 ft 443 kts 230°
2026-04-24 19:33 59.29617 23.39538 31858 ft 442 kts 229°
2026-04-24 19:34 59.27527 23.35124 32293 ft 442 kts 229°
2026-04-24 19:34 59.25465 23.30778 32708 ft 441 kts 229°
2026-04-24 19:34 59.23349 23.26331 33155 ft 440 kts 229°
2026-04-24 19:34 59.21295 23.22020 33556 ft 439 kts 229°
2026-04-24 19:35 59.19210 23.17650 33930 ft 439 kts 229°
2026-04-24 19:35 59.17127 23.13287 34255 ft 439 kts 229°
2026-04-24 19:35 59.15044 23.08934 34552 ft 439 kts 229°
2026-04-24 19:35 59.12957 23.04589 34854 ft 439 kts 229°
2026-04-24 19:36 59.10863 23.00242 35145 ft 440 kts 229°
2026-04-24 19:36 59.09473 22.97362 35337 ft 440 kts 229°
2026-04-24 19:36 59.06695 22.91610 35711 ft 441 kts 229°
2026-04-24 19:37 59.02491 22.82938 35807 ft 438 kts 229°
2026-04-24 19:37 58.98304 22.74319 35810 ft 437 kts 229°
2026-04-24 19:38 58.94144 22.65791 35805 ft 437 kts 229°
2026-04-24 19:38 58.90663 22.58666 35812 ft 438 kts 229°
2026-04-24 19:39 58.86460 22.50117 35817 ft 438 kts 229°
2026-04-24 19:39 58.82243 22.41581 35837 ft 439 kts 229°
2026-04-24 19:40 58.78021 22.33056 35855 ft 439 kts 229°
2026-04-24 19:40 58.73795 22.24556 35859 ft 439 kts 229°
2026-04-24 19:41 58.69584 22.16103 35867 ft 440 kts 229°
2026-04-24 19:41 58.65332 22.07607 35873 ft 440 kts 229°
2026-04-24 19:42 58.61080 21.99150 35875 ft 440 kts 229°
2026-04-24 19:42 58.56843 21.90751 35876 ft 440 kts 229°
2026-04-24 19:43 58.52575 21.82317 35879 ft 440 kts 229°
2026-04-24 19:43 58.48306 21.73913 35880 ft 440 kts 229°
2026-04-24 19:44 58.44047 21.65570 35884 ft 440 kts 229°
2026-04-24 19:44 58.39764 21.57213 35888 ft 441 kts 229°
2026-04-24 19:45 58.35491 21.48897 35887 ft 441 kts 229°
2026-04-24 19:45 58.31188 21.40555 35891 ft 441 kts 229°
2026-04-24 19:46 58.26882 21.32224 35897 ft 441 kts 229°
2026-04-24 19:46 58.22567 21.23923 35894 ft 441 kts 228°
2026-04-24 19:47 58.18248 21.15659 35897 ft 441 kts 228°
2026-04-24 19:47 58.13925 21.07484 35902 ft 441 kts 228°
2026-04-24 19:48 58.09567 20.99290 35902 ft 441 kts 228°
2026-04-24 19:48 58.03052 20.87054 35904 ft 441 kts 228°
2026-04-24 19:49 57.94301 20.70748 35908 ft 441 kts 228°
2026-04-24 19:50 57.85576 20.54581 35915 ft 441 kts 228°
2026-04-24 19:51 57.79001 20.42475 35920 ft 441 kts 228°
2026-04-24 19:52 57.72409 20.30422 35921 ft 441 kts 228°
2026-04-24 19:52 57.68007 20.22417 35924 ft 441 kts 228°
2026-04-24 19:53 57.63529 20.14571 35925 ft 442 kts 226°
2026-04-24 19:54 57.56635 20.03193 35927 ft 443 kts 225°
2026-04-24 19:54 57.52020 19.95565 35927 ft 442 kts 225°
2026-04-24 19:55 57.48194 19.89217 35926 ft 443 kts 226°
2026-04-24 19:55 57.42848 19.80345 35927 ft 443 kts 226°
2026-04-24 19:56 57.38247 19.72732 35930 ft 443 kts 226°
2026-04-24 19:56 57.33636 19.65143 35928 ft 443 kts 225°
2026-04-24 19:57 57.29007 19.57561 35929 ft 444 kts 225°
2026-04-24 19:57 57.24413 19.50058 35923 ft 444 kts 225°
2026-04-24 19:58 57.19771 19.42510 35930 ft 444 kts 225°
2026-04-24 19:58 57.15118 19.34970 35933 ft 444 kts 225°
2026-04-24 19:59 57.10468 19.27452 35933 ft 444 kts 225°
2026-04-24 19:59 57.05848 19.20018 35931 ft 444 kts 225°
2026-04-24 20:00 57.01178 19.12548 35934 ft 445 kts 225°
2026-04-24 20:00 56.96516 19.05089 35934 ft 445 kts 225°
2026-04-24 20:01 56.91843 18.97627 35947 ft 445 kts 225°
2026-04-24 20:01 56.87186 18.90224 35937 ft 445 kts 225°
2026-04-24 20:02 56.83260 18.84013 35944 ft 445 kts 225°
2026-04-24 20:02 56.77800 18.75401 35943 ft 446 kts 225°
2026-04-24 20:03 56.73130 18.68063 35948 ft 445 kts 225°
2026-04-24 20:03 56.68427 18.60701 35947 ft 445 kts 225°
2026-04-24 20:04 56.63723 18.53354 35950 ft 445 kts 225°
2026-04-24 20:04 56.59010 18.46016 35954 ft 445 kts 225°
2026-04-24 20:05 56.54315 18.38736 35950 ft 445 kts 225°
2026-04-24 20:05 56.49599 18.31451 35953 ft 445 kts 226°
2026-04-24 20:06 56.44884 18.24191 35956 ft 445 kts 226°
2026-04-24 20:06 56.40163 18.16945 35957 ft 444 kts 226°
2026-04-24 20:07 56.36238 18.10936 35959 ft 444 kts 226°
2026-04-24 20:07 56.30749 18.02560 35959 ft 444 kts 226°
2026-04-24 20:08 56.26020 17.95374 35955 ft 444 kts 226°
2026-04-24 20:08 56.21319 17.88261 35955 ft 444 kts 226°
2026-04-24 20:09 56.16585 17.81115 35960 ft 443 kts 226°
2026-04-24 20:09 56.11845 17.73986 35955 ft 443 kts 226°
2026-04-24 20:10 56.07150 17.66947 35952 ft 442 kts 226°
2026-04-24 20:10 56.02422 17.59875 35953 ft 442 kts 226°
2026-04-24 20:11 55.97725 17.52866 35955 ft 441 kts 226°
2026-04-24 20:11 55.92997 17.45847 35953 ft 441 kts 226°
2026-04-24 20:12 55.88262 17.38847 35960 ft 441 kts 226°
2026-04-24 20:12 55.83558 17.31917 35961 ft 441 kts 226°
2026-04-24 20:13 55.78675 17.25261 35960 ft 449 kts 217°
2026-04-24 20:13 55.72797 17.21082 35962 ft 461 kts 204°
2026-04-24 20:14 55.66664 17.17693 35953 ft 461 kts 204°
2026-04-24 20:14 55.60523 17.14537 35951 ft 463 kts 201°
2026-04-24 20:15 55.54213 17.12044 35953 ft 465 kts 198°
2026-04-24 20:15 55.47866 17.09773 35954 ft 465 kts 199°
2026-04-24 20:16 55.41544 17.07379 35956 ft 464 kts 199°
2026-04-24 20:16 55.35243 17.04877 35960 ft 463 kts 200°
2026-04-24 20:17 55.28947 17.02376 35961 ft 463 kts 200°
2026-04-24 20:17 55.19551 16.98716 35969 ft 463 kts 199°
2026-04-24 20:18 55.13264 16.96292 35964 ft 462 kts 200°
2026-04-24 20:18 55.06987 16.93865 35964 ft 461 kts 200°
2026-04-24 20:19 55.00716 16.91443 35963 ft 460 kts 200°
2026-04-24 20:19 54.94511 16.89050 35969 ft 459 kts 200°
2026-04-24 20:20 54.88255 16.86656 35965 ft 459 kts 200°
2026-04-24 20:20 54.82008 16.84275 35968 ft 458 kts 200°
2026-04-24 20:21 54.75818 16.81916 35972 ft 458 kts 200°
2026-04-24 20:21 54.69593 16.79551 35980 ft 457 kts 200°
2026-04-24 20:22 54.63373 16.77208 35980 ft 457 kts 200°
2026-04-24 20:22 54.57153 16.74859 35985 ft 456 kts 200°
2026-04-24 20:23 54.50986 16.72538 35991 ft 456 kts 199°
2026-04-24 20:23 54.44781 16.70218 35989 ft 456 kts 199°
2026-04-24 20:24 54.38578 16.67905 35994 ft 455 kts 199°
2026-04-24 20:24 54.33424 16.65985 35997 ft 455 kts 199°
2026-04-24 20:25 54.26229 16.63314 35997 ft 455 kts 199°
2026-04-24 20:25 54.20037 16.61023 35995 ft 455 kts 199°
2026-04-24 20:26 54.14898 16.59120 35994 ft 454 kts 199°
2026-04-24 20:26 54.08713 16.56836 36000 ft 455 kts 199°
2026-04-24 20:27 54.02519 16.54566 36007 ft 455 kts 199°
2026-04-24 20:27 53.96331 16.52315 36007 ft 455 kts 199°
2026-04-24 20:28 53.90172 16.50070 36010 ft 455 kts 199°
2026-04-24 20:28 53.83973 16.47808 36014 ft 455 kts 199°
2026-04-24 20:29 53.77773 16.45548 36018 ft 455 kts 199°
2026-04-24 20:29 53.71567 16.43303 36018 ft 455 kts 199°
2026-04-24 20:30 53.65393 16.41088 36020 ft 456 kts 199°
2026-04-24 20:30 53.59187 16.38874 36018 ft 455 kts 199°
2026-04-24 20:31 53.52981 16.36651 36020 ft 455 kts 199°
2026-04-24 20:31 53.46790 16.34432 36026 ft 455 kts 199°
2026-04-24 20:32 53.40630 16.32233 36027 ft 455 kts 199°
2026-04-24 20:32 53.34434 16.30037 36026 ft 454 kts 198°
2026-04-24 20:33 53.28233 16.27837 36031 ft 454 kts 199°
2026-04-24 20:33 53.22081 16.25659 36030 ft 454 kts 198°
2026-04-24 20:34 53.15897 16.23496 36027 ft 454 kts 198°
2026-04-24 20:34 53.09718 16.21333 36032 ft 454 kts 198°
2026-04-24 20:35 53.03541 16.19168 36033 ft 453 kts 198°
2026-04-24 20:35 52.97363 16.17011 36035 ft 453 kts 198°
2026-04-24 20:36 52.91227 16.14881 36045 ft 453 kts 198°
2026-04-24 20:36 52.85044 16.12740 36044 ft 453 kts 198°
2026-04-24 20:37 52.78859 16.10601 36045 ft 453 kts 198°
2026-04-24 20:37 52.72689 16.08478 36047 ft 452 kts 198°
2026-04-24 20:38 52.66565 16.06377 36045 ft 452 kts 198°
2026-04-24 20:38 52.60399 16.04266 36046 ft 451 kts 198°
2026-04-24 20:39 52.54252 16.02166 36044 ft 451 kts 198°
2026-04-24 20:39 52.48106 16.00063 36044 ft 450 kts 198°
2026-04-24 20:40 52.42004 15.97980 36048 ft 450 kts 198°
2026-04-24 20:40 52.35857 15.95896 36049 ft 450 kts 198°
2026-04-24 20:41 52.29713 15.93828 36051 ft 450 kts 198°
2026-04-24 20:41 52.23617 15.91773 36053 ft 450 kts 198°
2026-04-24 20:42 52.17471 15.89708 36054 ft 450 kts 198°
2026-04-24 20:42 52.11316 15.87645 36056 ft 450 kts 198°
2026-04-24 20:43 52.05213 15.85607 36056 ft 451 kts 198°
2026-04-24 20:43 51.99061 15.83559 36063 ft 451 kts 198°
2026-04-24 20:44 51.92896 15.81515 36068 ft 451 kts 198°
2026-04-24 20:44 51.86733 15.79477 36071 ft 451 kts 198°
2026-04-24 20:45 51.80576 15.77439 36074 ft 451 kts 198°
2026-04-24 20:45 51.74439 15.75376 36073 ft 448 kts 202°
2026-04-24 20:46 51.68866 15.71588 36084 ft 431 kts 218°
2026-04-24 20:46 51.63681 15.66715 36085 ft 431 kts 217°
2026-04-24 20:47 51.58488 15.61867 36078 ft 431 kts 217°
2026-04-24 20:47 51.53275 15.57031 36082 ft 431 kts 217°
2026-04-24 20:48 51.48109 15.52254 36078 ft 431 kts 217°
2026-04-24 20:48 51.42905 15.47436 36080 ft 431 kts 217°
2026-04-24 20:49 51.37683 15.42613 36085 ft 431 kts 217°
2026-04-24 20:49 51.32507 15.37849 36094 ft 432 kts 217°
2026-04-24 20:50 51.27286 15.33066 35904 ft 432 kts 217°
2026-04-24 20:50 51.24677 15.30677 35661 ft 431 kts 217°
2026-04-24 20:50 51.22077 15.28298 35417 ft 432 kts 217°
2026-04-24 20:51 51.19492 15.25938 35160 ft 432 kts 217°
2026-04-24 20:51 51.16878 15.23553 34847 ft 432 kts 217°
2026-04-24 20:51 51.14253 15.21157 34129 ft 437 kts 217°
2026-04-24 20:51 51.11616 15.18753 33643 ft 433 kts 217°
2026-04-24 20:52 51.09011 15.16383 33147 ft 429 kts 217°
2026-04-24 20:52 51.06427 15.14038 32649 ft 426 kts 217°
2026-04-24 20:52 51.03858 15.11714 32160 ft 423 kts 216°
2026-04-24 20:52 51.01420 15.09216 31679 ft 412 kts 224°
2026-04-24 20:53 50.99333 15.06260 31212 ft 402 kts 232°
2026-04-24 20:53 50.97357 15.03118 30754 ft 399 kts 231°
2026-04-24 20:53 50.95395 15.00026 30301 ft 396 kts 231°
2026-04-24 20:53 50.93432 14.96950 29803 ft 393 kts 231°
2026-04-24 20:54 50.91515 14.93955 29363 ft 389 kts 231°
2026-04-24 20:54 50.89595 14.90966 28930 ft 385 kts 231°
2026-04-24 20:54 50.87692 14.88005 28506 ft 382 kts 231°
2026-04-24 20:54 50.85782 14.85085 28081 ft 380 kts 229°
2026-04-24 20:55 50.83802 14.82303 27654 ft 380 kts 226°
2026-04-24 20:55 50.81768 14.79625 27231 ft 379 kts 225°
2026-04-24 20:55 50.79744 14.77049 26831 ft 377 kts 225°
2026-04-24 20:55 50.77694 14.74452 26424 ft 374 kts 225°
2026-04-24 20:56 50.75673 14.71868 26024 ft 372 kts 225°
2026-04-24 20:56 50.73680 14.69295 25635 ft 369 kts 225°
2026-04-24 20:56 50.71730 14.66756 25253 ft 366 kts 225°
2026-04-24 20:56 50.69776 14.64198 24869 ft 363 kts 225°
2026-04-24 20:57 50.67839 14.61660 24479 ft 361 kts 225°
2026-04-24 20:57 50.65910 14.59137 24082 ft 358 kts 225°
2026-04-24 20:57 50.63992 14.56635 23691 ft 356 kts 225°
2026-04-24 20:57 50.62088 14.54150 23262 ft 354 kts 225°
2026-04-24 20:58 50.60195 14.51686 22853 ft 350 kts 225°
2026-04-24 20:58 50.58291 14.49301 22460 ft 349 kts 220°
2026-04-24 20:58 50.56294 14.47221 22070 ft 347 kts 218°
2026-04-24 20:58 50.54276 14.45137 21661 ft 345 kts 219°
2026-04-24 20:59 50.53602 14.44441 21522 ft 344 kts 219°
2026-04-24 20:59 50.52530 14.43338 21295 ft 343 kts 218°
2026-04-24 20:59 50.50542 14.41292 20903 ft 341 kts 218°
2026-04-24 20:59 50.48588 14.39278 20507 ft 339 kts 218°
2026-04-24 21:00 50.46616 14.37255 20105 ft 337 kts 217°
2026-04-24 21:00 50.44505 14.35593 19704 ft 342 kts 205°
2026-04-24 21:00 50.42196 14.34624 19298 ft 346 kts 193°
2026-04-24 21:00 50.39776 14.34422 18885 ft 351 kts 180°
2026-04-24 21:01 50.37340 14.34866 18460 ft 352 kts 176°
2026-04-24 21:01 50.34911 14.35364 18008 ft 352 kts 176°
2026-04-24 21:01 50.32492 14.35853 17584 ft 349 kts 176°
2026-04-24 21:01 50.30113 14.36333 17180 ft 347 kts 176°
2026-04-24 21:02 50.27716 14.36813 16606 ft 350 kts 176°
2026-04-24 21:02 50.25245 14.37297 15656 ft 365 kts 175°
2026-04-24 21:02 50.22684 14.37797 14843 ft 374 kts 175°
2026-04-24 21:02 50.20142 14.38439 14675 ft 363 kts 166°
2026-04-24 21:03 50.17868 14.40005 14528 ft 352 kts 147°
2026-04-24 21:03 50.16000 14.42343 14317 ft 344 kts 139°
2026-04-24 21:03 50.14227 14.44794 13991 ft 341 kts 138°
2026-04-24 21:03 50.12457 14.47262 13589 ft 338 kts 138°
2026-04-24 21:04 50.10700 14.49717 12954 ft 337 kts 137°
2026-04-24 21:04 50.08980 14.52115 12315 ft 327 kts 137°
2026-04-24 21:04 50.07307 14.54448 11691 ft 318 kts 137°
2026-04-24 21:04 50.05673 14.56721 11068 ft 310 kts 137°
2026-04-24 21:05 50.04071 14.58860 10471 ft 304 kts 145°
2026-04-24 21:05 50.02135 14.59968 9861 ft 295 kts 180°
2026-04-24 21:05 50.00129 14.59743 9207 ft 287 kts 191°
2026-04-24 21:05 49.98257 14.58906 8555 ft 274 kts 217°
2026-04-24 21:06 49.97042 14.56805 7931 ft 255 kts 253°
2026-04-24 21:06 49.96832 14.54192 7317 ft 240 kts 285°
2026-04-24 21:06 49.97487 14.51935 6742 ft 228 kts 308°
2026-04-24 21:06 49.98436 14.49995 6109 ft 224 kts 309°
2026-04-24 21:07 49.99369 14.48088 5461 ft 220 kts 309°
2026-04-24 21:07 50.00286 14.46208 4825 ft 216 kts 309°
2026-04-24 21:07 50.01172 14.44389 4175 ft 204 kts 309°
2026-04-24 21:07 50.01997 14.42692 3701 ft 187 kts 309°
2026-04-24 21:08 50.02751 14.41141 3468 ft 177 kts 309°
2026-04-24 21:08 50.03454 14.39693 3204 ft 160 kts 309°
2026-04-24 21:08 50.04106 14.38353 2957 ft 146 kts 309°
2026-04-24 21:08 50.04698 14.37134 2773 ft 137 kts 308°
2026-04-24 21:09 50.05266 14.35966 2577 ft 134 kts 308°
2026-04-24 21:09 50.05818 14.34829 2399 ft 132 kts 308°
2026-04-24 21:09 50.06374 14.33683 2215 ft 132 kts 308°
2026-04-24 21:09 50.06927 14.32542 2024 ft 132 kts 308°
2026-04-24 21:10 50.07461 14.31438 1846 ft 133 kts 308°
2026-04-24 21:10 50.08010 14.30292 1638 ft 134 kts 307°
2026-04-24 21:10 50.08572 14.29133 1415 ft 134 kts 309°
2026-04-24 21:10 50.09133 14.27972 1274 ft 135 kts 308°
2026-04-24 21:11 50.09663 14.26889 1208 ft 101 kts 307°
2026-04-24 21:11 50.09918 14.26365 1199 ft 36 kts 304°
2026-04-24 21:11 50.10071 14.26048 1191 ft 37 kts 307°
2026-04-24 21:11 50.10224 14.25748 1188 ft 35 kts 317°
2026-04-24 21:12 50.10432 14.25662 1183 ft 18 kts
2026-04-24 21:12 50.10483 14.25734 1178 ft 16 kts 72°
2026-04-24 21:12 50.10517 14.26004 1174 ft 21 kts 77°
2026-04-24 21:12 50.10529 14.26241 1172 ft 23 kts 108°
2026-04-24 21:13 50.10472 14.26387 1171 ft 11 kts 122°
2026-04-24 21:13 50.10442 14.26458 1174 ft 13 kts 123°
2026-04-24 21:13 50.10415 14.26521 1170 ft 4 kts 125°
2026-04-24 21:13 50.10426 14.26574 1171 ft 4 kts 38°
2026-04-24 21:14 50.10433 14.26580 1171 ft 0 kts 34°